DW3310 Weather Reports


time (UTC)temp
C
wind
direction
speed
KPH
gust
KPH
rain 1hr
cm
rain 24hr
cm
rain mn
cm
humidity
%
barometer
mb
20260906143006 13 309 8.0 16.1 0.00 0.61 0.33 1 1016.8
20260906141502 13 323 6.4 14.5 0.00 0.61 0.33 1 1016.8
20260906140108 13 349 6.4 12.9 0.00 0.61 0.33 1 1016.7
20260906134617 13 329 4.8 12.9 0.00 0.61 0.33 1 1016.6
20260906133056 12 325 3.2 12.9 0.00 0.61 0.33 1 1016.6
20260906131548 12 328 3.2 9.7 0.00 0.61 0.33 1 1016.5
20260906130100 12 314 4.8 9.7 0.00 0.61 0.33 1 1016.5
20260906124538 12 334 4.8 9.7 0.00 0.61 0.33 1 1016.5
20260906123040 12 360 3.2 8.0 0.00 0.61 0.33 1 1016.5
20260906121541 12 360 1.6 6.4 0.00 0.61 0.33 1 1016.3
20260906120025 12 355 1.6 4.8 0.03 0.61 0.33 1 1016.2
20260906114525 12 360 1.6 4.8 0.05 0.61 0.33 1 1016.1
20260906113016 12 355 3.2 6.4 0.15 0.61 0.33 1 1016.1
20260906111511 12 355 1.6 6.4 0.20 0.61 0.33 1 1015.9
20260906110008 12 360 1.6 4.8 0.18 0.58 0.30 1 1015.8
20260906104502 12 355 0.0 8.0 0.15 0.56 0.28 1 1015.6
20260906103058 12 24 6.4 16.1 0.05 0.46 0.18 1 1015.6
20260906101554 12 101 0.0 3.2 0.00 0.41 0.13 1 1015.5
20260906100049 12 101 0.0 0.0 0.03 0.41 0.13 1 1015.3
20260906094544 12 101 0.0 3.2 0.05 0.41 0.13 1 1015.1
20260906093049 12 101 0.0 0.0 0.08 0.41 0.13 1 1015.1
20260906091535 12 101 0.0 0.0 0.08 0.41 0.13 1 1014.9
20260906090033 12 101 1.6 4.8 0.08 0.38 0.10 1 1014.8
20260906084527 12 101 0.0 0.0 0.05 0.36 0.08 1 1014.8
20260906083024 12 101 0.0 4.8 0.03 0.33 0.05 1 1014.7
20260906081539 12 101 1.6 4.8 0.03 0.33 0.05 1 1014.8
20260906080014 12 101 1.6 4.8 0.00 0.30 0.03 1 1014.6
20260906074508 12 101 3.2 9.7 0.03 0.30 0.03 1 1014.6
20260906073011 13 96 3.2 9.7 0.03 0.30 0.03 5 1014.7
20260906071605 13 150 1.6 8.0 0.03 0.30 0.03 6 1014.8
20260906070118 13 157 3.2 11.3 0.03 0.30 0.03 8 1014.5
20260906064552 13 119 3.2 11.3 0.00 0.28 0.00 17 1014.3
20260906063051 13 91 1.6 12.9 0.00 0.28 0.00 21 1014.1
20260906061602 13 85 6.4 16.1 0.00 0.28 0.00 25 1014.1
20260906060048 14 87 3.2 9.7 0.00 0.28 0.00 23 1014.2
20260906054546 14 96 3.2 9.7 0.00 0.28 0.00 22 1014.3
20260906053050 14 86 3.2 9.7 0.00 0.28 0.00 23 1014.3
20260906051544 14 92 6.4 12.9 0.00 0.28 0.00 24 1014.2
20260906050101 14 59 4.8 16.1 0.00 0.28 0.00 23 1014.2
20260906044539 14 83 3.2 16.1 0.00 0.28 0.00 23 1014.3
20260906043045 14 82 4.8 11.3 0.00 0.28 0.00 17 1014.3
20260906041536 14 88 6.4 14.5 0.00 0.28 0.00 18 1014.3
20260906040034 15 106 3.2 14.5 0.00 0.28 0.00 19 1014.2
20260906034529 15 111 6.4 16.1 0.00 0.28 0.28 18 1014.1
20260906033024 15 84 4.8 17.7 0.00 0.28 0.28 24 1014.0
20260906031518 15 54 6.4 17.7 0.00 0.28 0.28 17 1014.0
20260906030013 15 79 4.8 16.1 0.00 0.28 0.28 17 1013.9
20260906024508 15 113 4.8 16.1 0.00 0.28 0.28 17 1014.0
20260906023004 15 101 3.2 9.7 0.00 0.28 0.28 7 1014.0
20260906021600 15 51 3.2 16.1 0.00 0.28 0.28 10 1013.9
20260906020056 15 71 8.0 19.3 0.00 0.28 0.28 9 1013.8
20260906014606 15 86 4.8 17.7 0.00 0.28 0.28 1 1013.9
20260906013046 15 55 6.4 14.5 0.00 0.28 0.28 1 1013.8
20260906011551 14 72 4.8 12.9 0.00 0.28 0.28 1 1013.9
20260906010038 14 73 3.2 6.4 0.00 0.28 0.28 1 1013.9
20260906004532 14 76 1.6 8.0 0.00 0.28 0.28 1 1013.9
20260906003027 14 71 4.8 14.5 0.00 0.28 0.28 1 1013.6
20260906001522 14 107 1.6 9.7 0.03 0.28 0.28 1 1013.5
20260906000019 14 86 3.2 12.9 0.08 0.28 0.28 1 1013.4
20260905234513 13 123 3.2 9.7 0.08 0.28 0.28 1 1013.3
20260905233011 14 134 4.8 12.9 0.08 0.28 0.28 1 1013.3
20260905231511 14 86 6.4 17.7 0.08 0.25 0.25 1 1013.3
20260905230103 15 80 3.2 6.4 0.03 0.20 0.20 1 1013.0
20260905224605 15 80 1.6 6.4 0.08 0.20 0.20 1 1013.0
20260905223051 15 81 0.0 3.2 0.18 0.20 0.20 1 1012.9
20260905221547 15 81 0.0 0.0 0.18 0.18 0.18 1 1012.9
20260905220042 15 80 0.0 0.0 0.18 0.18 0.18 1 1012.8
20260905214538 16 81 0.0 4.8 0.13 0.13 0.13 6 1012.5
20260905213033 16 69 4.8 12.9 0.03 0.03 0.03 35 1012.4
20260905211528 17 49 4.8 16.1 0.00 0.00 0.00 54 1012.1
20260905210024 17 76 3.2 11.3 0.00 0.00 0.00 53 1011.9
20260905204518 17 126 3.2 12.9 0.00 0.00 0.00 55 1011.8
20260905203014 17 82 4.8 14.5 0.00 0.00 0.00 47 1011.7
20260905201515 17 55 9.7 24.1 0.00 0.00 0.00 46 1011.6
20260905200006 18 59 6.4 20.9 0.00 0.00 0.00 50 1011.3
20260905194604 18 58 8.0 19.3 0.00 0.00 0.00 57 1011.3
20260905193056 18 92 8.0 17.7 0.00 0.00 0.00 59 1011.3
20260905191552 18 64 8.0 22.5 0.00 0.00 0.00 57 1011.3
20260905190053 18 76 12.9 19.3 0.00 0.00 0.00 48 1011.2
20260905184554 19 179 6.4 22.5 0.00 0.00 0.00 51 1011.1
20260905183045 20 92 3.2 20.9 0.00 0.00 0.00 60 1010.9
20260905181534 20 88 9.7 16.1 0.00 0.00 0.00 62 1011.0
20260905180029 20 24 4.8 19.3 0.00 0.00 0.00 61 1011.0
20260905174525 20 24 8.0 19.3 0.00 0.00 0.00 60 1011.0
20260905173022 19 74 6.4 19.3 0.00 0.00 0.00 58 1011.0
20260905171517 18 57 8.0 19.3 0.00 0.00 0.00 57 1011.0
20260905170012 18 41 11.3 20.9 0.00 0.00 0.00 58 1011.1
20260905164508 18 61 11.3 22.5 0.00 0.00 0.00 58 1011.1
20260905163003 18 94 4.8 24.1 0.00 0.00 0.00 52 1011.2
20260905161558 18 82 8.0 22.5 0.00 0.00 0.00 49 1011.3
20260905160057 18 94 8.0 17.7 0.00 0.00 0.00 48 1011.4
20260905154551 18 53 4.8 17.7 0.00 0.00 0.00 52 1011.4
20260905153057 17 69 6.4 19.3 0.00 0.00 0.00 52 1011.2
20260905151544 17 37 6.4 19.3 0.00 0.00 0.00 52 1011.1
20260905150039 18 63 8.0 17.7 0.00 0.00 0.00 54 1011.1
20260905144534 18 78 6.4 12.9 0.00 0.00 0.00 54 1011.0